Du Bois, PA

1:29 AM EDT on April 30, 2017 (GMT -0400)
Du Bois-Jefferson County

Weather History for KDUJ - May, 2014

Change the Weather History Date:

Monday, May 12, 2014

  Actual Average Record
Temperature  
Mean Temperature 67 °F 55 °F  
Max Temperature 78 °F 66 °F 83 °F (1991)
Min Temperature 56 °F 44 °F 30 °F (1996)
Degree Days  
Heating Degree Days 0 10  
Month to date heating degree days 108 138  
Since 1 July heating degree days 6695 6651  
Cooling Degree Days 2 0  
Month to date cooling degree days 11 0  
Year to date cooling degree days 19 4  
Growing Degree Days 15 (Base 50)    
Moisture  
Dew Point 56 °F    
Average Humidity 68    
Maximum Humidity 81    
Minimum Humidity 54    
Precipitation  
Precipitation 0.14 in 0.14 in 1.71 in (2002)
Month to date precipitation 0.70 1.54  
Sea Level Pressure  
Sea Level Pressure 30.09 in    
Wind  
Wind Speed 6 mph (SW)    
Max Wind Speed 16 mph    
Max Gust Speed 24 mph    
Visibility 9 miles    
Events Rain    
T = Trace of Precipitation, MM = Missing Value Source: NWS Daily Summary

Daily Weather History Graph

Daily Weather History Graph

Search for Another Location

Airport or City:

Trip Planner

Search our weather history database for the weather conditions in past years. The results will help you decide how hot, cold, wet, or windy it might be!

Date:

Astronomy

May. 12, 2014 Rise Set
Actual Time 6:00 AM EDT 8:24 PM EDT
Civil Twilight 5:29 AM EDT 8:55 PM EDT
Nautical Twilight 4:50 AM EDT 9:33 PM EDT
Astronomical Twilight 4:08 AM EDT 10:16 PM EDT
Moon 6:19 PM EDT (5/12) 4:39 AM EDT (5/12)
Length of Visible Light 15h 26m
Length of Day
14h 23m
Waxing Gibbous, 95% of the Moon is Illuminated
May 12
Waxing Gibbous
May 14
Full
May 21
Last Quarter
May 28
New
Jun 5
First Quarter

Hourly Weather History & Observations

Time (EDT) Temp. Dew Point Humidity Pressure Visibility Wind Dir Wind Speed Gust Speed Precip Events Conditions
12:56 AM 60.1 °F 48.9 °F 67% 30.10 in 10.0 mi Calm Calm - N/A   Clear
1:56 AM 57.0 °F 48.9 °F 74% 30.10 in 10.0 mi ENE 4.6 mph - N/A   Clear
2:56 AM 55.9 °F 48.9 °F 77% 30.09 in 10.0 mi East 4.6 mph - N/A   Clear
3:56 AM 57.0 °F 48.9 °F 74% 30.08 in 10.0 mi Calm Calm - N/A   Partly Cloudy
4:56 AM 57.9 °F 50.0 °F 75% 30.07 in 10.0 mi SE 3.5 mph - N/A   Clear
5:56 AM 59.0 °F 48.9 °F 69% 30.09 in 10.0 mi ESE 4.6 mph - N/A   Scattered Clouds
6:56 AM 57.9 °F 50.0 °F 75% 30.10 in 10.0 mi SE 5.8 mph - N/A   Overcast
7:56 AM 61.0 °F 50.0 °F 67% 30.11 in 10.0 mi SE 3.5 mph - N/A   Overcast
8:56 AM 62.1 °F 52.0 °F 70% 30.12 in 10.0 mi SSE 3.5 mph - 0.00 in   Overcast
10:56 AM 72.0 °F 57.9 °F 61% 30.09 in 10.0 mi SW 9.2 mph - N/A   Overcast
11:56 AM 73.0 °F 57.9 °F 59% 30.09 in 10.0 mi WSW 8.1 mph - N/A   Mostly Cloudy
12:56 PM 66.9 °F 60.1 °F 79% 30.10 in 3.0 mi West 10.4 mph - 0.02 in Rain Light Rain
1:56 PM 72.0 °F 61.0 °F 68% 30.09 in 10.0 mi West 5.8 mph - 0.03 in   Overcast
2:56 PM 75.0 °F 60.1 °F 60% 30.09 in 10.0 mi WSW 9.2 mph 17.3 mph N/A   Mostly Cloudy
3:56 PM 75.9 °F 59.0 °F 56% 30.08 in 10.0 mi SW 10.4 mph - N/A   Mostly Cloudy
4:56 PM 75.9 °F 57.9 °F 54% 30.07 in 10.0 mi West 10.4 mph 21.9 mph N/A   Partly Cloudy
5:56 PM 75.9 °F 60.1 °F 58% 30.06 in 10.0 mi WSW 9.2 mph - N/A   Partly Cloudy
6:56 PM 73.9 °F 62.1 °F 66% 30.06 in 10.0 mi WSW 9.2 mph - N/A   Clear
7:56 PM 70.0 °F 62.1 °F 76% 30.08 in 10.0 mi WSW 9.2 mph - N/A   Clear
8:56 PM 68.0 °F 62.1 °F 81% 30.10 in 10.0 mi WSW 6.9 mph - N/A   Scattered Clouds
9:56 PM 68.0 °F 62.1 °F 81% 30.10 in 10.0 mi NNW 3.5 mph - N/A   Mostly Cloudy
10:56 PM 66.9 °F 63.0 °F 87% 30.12 in 4.0 mi West 4.6 mph - 0.02 in Rain Light Rain
11:56 PM 66.0 °F 63.0 °F 90% 30.08 in 7.0 mi SW 13.8 mph 20.7 mph 0.04 in Rain Light Rain